Location: Myrnam
(53.6612°N, 111.2289°W)
Time: 02:51:34
(UTC+00:00)

Envisat - Visible Passes

Search period start: 05 June 2023 00:00
Search period end: 15 June 2023 00:00
Orbit: 763 x 765 km, 98.2° (Epoch: 04 June)

Date Brightness Start Highest point End Pass type
(mag) Time Alt. Az. Time Alt. Az. Time Alt. Az.
05 Jun 6.0 09:37:20 10° ENE 09:37:40 10° E 09:38:02 10° E visible
07 Jun 5.5 09:59:39 10° NE 10:02:48 16° E 10:05:58 10° SE visible
10 Jun 5.7 09:47:50 10° NE 09:50:11 13° E 09:52:32 10° ESE visible
13 Jun 6.0 09:36:51 10° ENE 09:37:31 10° E 09:38:11 10° E visible
